Location: Freemans Gardens
(41.6414°N, 83.6077°W)
Time: 21:41:55
(UTC+00:00)

NOSS 3-3 (A) - Pass Details

Date: 29 October 2020
Orbit: 826 x 1387 km, 63.4° (Epoch: 22 November)

Event Time Altitude Azimuth Distance (km) Brightness Sun altitude
Rises 23:23:25 0° 201° (SSW) 3,375 7.3 -10.1°
Reaches altitude 10° 23:25:48 10° 197° (SSW) 2,476 6.5 -10.6°
Maximum altitude 23:31:22 59° 119° (ESE) 1,043 3.9 -11.6°
Drops below altitude 10° 23:37:37 10° 41° (NE) 2,768 5.9 -12.8°
Enters shadow 23:38:34 - 40° (NE) 3,120 6.2 -12.9°
